Retour au catalogue

OPS 4682 DEB

ActifPO
NORAD 38379·DEBRIS·🇺🇸 United States

Lancé Apr 3, 1965 depuis Vandenberg Space Force Base

Loading…

Prochains Passages (prochaines 24 heures)

TLE

FraisSource: Space-Track

Époque: Sep 12, 2026, 01:40 UTC

1 38379U 65027CG  26255.06967319  .00000970  00000-0  31692-2 0  9990
2 38379  90.2448   5.9600 0025881  11.2734 348.8963 13.00556147643759

Suivez OPS 4682 DEB en temps réel avec AllMySat

Download on the App Store